NEOK1: Neosho R at Neosho Rapids, KS

                                SHEF ID:       NEOK1     NEOSHO R AT NEOSHO RAPIDS, KS
STATION TYPE:

STAGE RIV-FLOW BAT-LOAD
ft cfs volt
Ccp-Rev Ccp-Rev Ccp-Rev
(America/Chicago)
05/17 00:00 3.37 1258 12.57
05/17 01:00 3.37 1258 12.56
05/17 02:00 3.36 1253 12.54
05/17 03:00 3.34 1242 12.53
05/17 04:00 3.32 1231 12.50
05/17 05:00 3.33 1237 12.48
05/17 06:00 3.33 1237 12.46
05/17 07:00 3.33 1237 12.44
05/17 08:00 3.31 1226 12.53
05/17 09:00 3.29 1216 12.97
05/17 10:00 3.29 1216 13.11
05/17 11:00 3.29 1216 13.03
05/17 12:00 3.28 1210 13.09
05/17 13:00 3.27 1205 13.09
05/17 14:00 3.27 1205 13.01
05/17 15:00 3.25 1195 12.97
05/17 16:00 3.25 1195 13.00
05/17 17:00 3.24 1189 12.91
05/17 18:00 3.23 1184 12.93
05/17 19:00 3.23 1184 12.86
05/17 20:00 3.21 1174 12.73
05/17 21:00 3.20 1168 12.65
05/17 22:00 3.19 1163 12.62
05/17 23:00 3.19 1163 12.60
Data processed at Mon 18May2026 04:36 GMT

NOTICE: If you are parsing this page

Please convert to using our Data API. Starting early 2026 we will be migrating to: https://water.usace.army.mil with modern pages rendered in JavaScript. When this migration completes you will no longer be able to scrape this page! CWMSDataAPI (CDA)

Timeseries IDs (TSIDs)

TSIDs used from left to right in the data table
NEOR.Stage.Inst.1Hour.0.Ccp-Rev
NEOR.Flow.Inst.1Hour.0.Ccp-Rev
NEOR.Volt-Battery Load.Inst.1Hour.0.Ccp-Rev

                            

All information presented herein is the property of the government of the United States of America and may be revised or deleted at any time without prior notice. Dissemination of this information without the expressed written consent of the Public Affairs Office, Tulsa District U.S. Army Corps of Engineers is strictly prohibited. These data are gathered electronically and, as presented, have NOT undergone any form of quality control. These data are NOT guaranteed to be valid or correct.